CYAB

Arctic Bay 

Arctic Bay, , Canada
Issued Wind Visibility Ceiling Temperature Dew Point Humidity Barometer
Sep-22
20:00 UTC
280°
14 KTS
30 miles Broken
3,000' AGL
-1° C
30° F
-4° C
25° F
80% 30.06" Hg
1018.4 hPa
MVFR
Sep-22
19:00 UTC
300°
8 KTS
25 miles Broken
2,900' AGL
C
32° F
-3° C
27° F
80% 30.06" Hg
1018.3 hPa
MVFR
Sep-22
18:00 UTC
290°
13 KTS
30 miles Broken
2,200' AGL
C
32° F
-3° C
27° F
80% 30.07" Hg
1018.5 hPa
MVFR
Sep-22
17:00 UTC
270°
6 KTS
30 miles Broken
2,000' AGL
C
32° F
-3° C
27° F
80% 30.07" Hg
1018.6 hPa
MVFR
Sep-22
16:00 UTC
Varies @2 KTS 30 miles Broken
1,900' AGL
-1° C
30° F
-3° C
27° F
86% 30.07" Hg
1018.8 hPa
MVFR
Sep-22
15:00 UTC
30 miles Overcast
3,500' AGL
-1° C
30° F
-4° C
25° F
80% 30.08" Hg
1019.1 hPa
VFR
Sep-22
14:12 UTC
Varies @2 KTS 30 miles Broken
3,700' AGL
-1° C
30° F
-4° C
25° F
80% 30.09" Hg
1019.2 hPa
VFR
Sep-22
14:00 UTC
30 miles Broken
4,000' AGL
-1° C
30° F
-4° C
25° F
80% 30.08" Hg
1019.1 hPa
VFR
Sep-22
13:00 UTC
Varies @2 KTS 30 miles Broken
3,500' AGL
-1° C
30° F
-5° C
23° F
75% 30.08" Hg
1019.1 hPa
VFR
Sep-22
12:00 UTC
050°
7 KTS
30 miles Broken
4,000' AGL
-2° C
28° F
-5° C
23° F
80% 30.08" Hg
1019.1 hPa
VFR
Sep-22
11:00 UTC
070°
6 KTS
30 miles Broken
4,000' AGL
-2° C
28° F
-5° C
23° F
80% 30.09" Hg
1019.4 hPa
VFR